Tracking 18840 objects as of 18-November-2017
HD Live streaming from Space Station
objects crossing your sky now

IABS R/B

Track IABS R/B now!


NORAD ID: 26054
Int'l Code: 2000-001C
Perigee: 35,436.4 km
Apogee: 35,644.7 km
Inclination: 13.2 °
Period: 1,423.2 minutes
Semi major axis: 41911 km
RCS: Unknown
Launch date: January 21, 2000
Source: United States (US)
Launch site: AIR FORCE EASTERN TEST RANGE (AFETR)

Note: This is a ROCKET BODY
aabbcc
Your satellite tracking list
Your tracking list is empty




NASA's NSSDC Master Catalog

Two Line Element Set (TLE):
1 26054U 00001C   17314.14213830 0.00000000  00000-0  00000-0 0    09
2 26054  13.1585  25.6753 0024851 270.8194  88.9078  1.01181943    09
Source of the keplerian elements: McCants